When you browse on this site, cookies collect data to enhance your experience and personalize the content and advertising you see.
Visit our Privacy Policy to learn more. By continuing to use the site, you agree to this use of cookies and data.
  • In Norway
  • List of Countries
  • For 7 days
  • Water Temperature
  • Satellite Maps
  • Weather Map
  • Weather Widgets
  • user-avatar
    Login

    Hourly Weather Linz

    Today, 25 June, Tuesday

    Time Temperature Precipitation Wind Pressure Humidity
    00:00 +18°C° 0 mm 2 mps 738 mmHg 91%
    01:00 +18°C° 0 mm 2 mps 739 mmHg 92%
    02:00 +18°C° 0 mm 2 mps 738 mmHg 92%
    03:00 +17°C° 0 mm 2 mps 738 mmHg 93%
    04:00 +17°C° 0 mm 2 mps 738 mmHg 93%
    05:00 +18°C° 0 mm 2 mps 738 mmHg 90%
    06:00 +20°C° 0 mm 2 mps 738 mmHg 86%
    07:00 +21°C° 0 mm 2 mps 738 mmHg 83%
    08:00 +24°C° 0 mm 3 mps 738 mmHg 78%
    09:00 +26°C° 0 mm 3 mps 738 mmHg 74%
    10:00 +27°C° 0 mm 3 mps 738 mmHg 70%
    11:00 +29°C° 0 mm 3 mps 738 mmHg 66%
    12:00 +30°C° 0 mm 3 mps 738 mmHg 63%
    13:00 +31°C° 0 mm 3 mps 739 mmHg 59%
    14:00 +33°C° 0 mm 3 mps 738 mmHg 59%
    15:00 +33°C° 0 mm 3 mps 738 mmHg 58%
    16:00 +34°C° 0 mm 2 mps 738 mmHg 58%
    17:00 +31°C° 0 mm 2 mps 739 mmHg 64%
    18:00 +30°C° 0 mm 2 mps 739 mmHg 71%
    19:00 +28°C° 0 mm 2 mps 739 mmHg 78%
    20:00 +26°C° 0 mm 1 mps 739 mmHg 81%
    21:00 +25°C° 0 mm 1 mps 739 mmHg 84%
    22:00 +23°C° 0 mm 1 mps 740 mmHg 86%
    23:00 +22°C° 0 mm 1 mps 740 mmHg 87%

    Tomorrow, 26 June, Wednesday

    Time Temperature Precipitation Wind Pressure Humidity
    00:00 +22°C° 0 mm 1 mps 740 mmHg 88%
    01:00 +21°C° 0 mm 1 mps 740 mmHg 88%
    02:00 +21°C° 0 mm 1 mps 740 mmHg 89%
    03:00 +20°C° 0 mm 1 mps 739 mmHg 89%
    04:00 +20°C° 0 mm 1 mps 739 mmHg 90%
    05:00 +19°C° 0 mm 0 mps 740 mmHg 86%
    06:00 +21°C° 0 mm 0 mps 740 mmHg 83%
    07:00 +22°C° 0 mm 0 mps 740 mmHg 79%
    08:00 +24°C° 0 mm 0 mps 740 mmHg 75%
    09:00 +26°C° 0 mm 0 mps 740 mmHg 71%
    10:00 +29°C° 0 mm 1 mps 740 mmHg 66%
    11:00 +31°C° 0 mm 1 mps 740 mmHg 62%
    12:00 +32°C° 0 mm 1 mps 740 mmHg 59%
    13:00 +33°C° 0 mm 1 mps 740 mmHg 55%
    14:00 +33°C° 0 mm 1 mps 739 mmHg 54%
    15:00 +33°C° 0 mm 1 mps 739 mmHg 54%
    16:00 +33°C° 0 mm 1 mps 739 mmHg 53%
    17:00 +32°C° 0 mm 1 mps 739 mmHg 59%
    18:00 +31°C° 0 mm 1 mps 739 mmHg 65%
    19:00 +29°C° 0 mm 1 mps 738 mmHg 72%
    20:00 +28°C° 0 mm 1 mps 739 mmHg 73%
    21:00 +26°C° 0 mm 1 mps 739 mmHg 75%
    22:00 +25°C° 0 mm 1 mps 739 mmHg 77%
    23:00 +25°C° 0 mm 1 mps 739 mmHg 77%

    Day after tomorrow, 27 June, Thursday

    Time Temperature Precipitation Wind Pressure Humidity
    00:00 +24°C° 0 mm 1 mps 739 mmHg 78%
    01:00 +24°C° 0 mm 1 mps 738 mmHg 79%
    02:00 +23°C° 0.1 mm 1 mps 738 mmHg 80%
    03:00 +23°C° 0.1 mm 1 mps 738 mmHg 82%
    04:00 +23°C° 0.1 mm 1 mps 738 mmHg 83%
    05:00 +24°C° 0.1 mm 2 mps 738 mmHg 82%
    06:00 +25°C° 0.1 mm 2 mps 738 mmHg 81%
    07:00 +26°C° 0.1 mm 2 mps 738 mmHg 80%
    08:00 +27°C° 0.3 mm 2 mps 738 mmHg 78%
    09:00 +28°C° 0.3 mm 2 mps 738 mmHg 76%
    10:00 +29°C° 0.3 mm 2 mps 738 mmHg 75%
    11:00 +29°C° 2 mm 2 mps 738 mmHg 75%
    12:00 +29°C° 2 mm 3 mps 738 mmHg 76%
    13:00 +29°C° 2 mm 3 mps 738 mmHg 77%
    14:00 +29°C° 1.3 mm 3 mps 738 mmHg 75%
    15:00 +29°C° 1.3 mm 2 mps 738 mmHg 73%
    16:00 +29°C° 1.3 mm 2 mps 737 mmHg 71%
    17:00 +28°C° 0.2 mm 2 mps 737 mmHg 72%
    18:00 +26°C° 0.2 mm 2 mps 737 mmHg 73%
    19:00 +24°C° 0.2 mm 2 mps 737 mmHg 75%
    20:00 +21°C° 0 mm 2 mps 738 mmHg 73%
    21:00 +20°C° 0 mm 1 mps 738 mmHg 71%
    22:00 +16°C° 0 mm 0 mps 738 mmHg 69%
    23:00 +18°C° 0 mm 1 mps 738 mmHg 71%

    28 June, Friday

    Time Temperature Precipitation Wind Pressure Humidity
    00:00 +16°C° 0 mm 1 mps 738 mmHg 72%
    01:00 +15°C° 0 mm 1 mps 738 mmHg 74%
    02:00 +15°C° 0 mm 1 mps 738 mmHg 76%
    03:00 +13°C° 0 mm 0 mps 738 mmHg 78%
    04:00 +13°C° 0 mm 0 mps 738 mmHg 80%
    05:00 +14°C° 0 mm 0 mps 738 mmHg 77%
    06:00 +16°C° 0 mm 0 mps 738 mmHg 74%
    07:00 +17°C° 0 mm 0 mps 738 mmHg 71%
    08:00 +21°C° 0 mm 1 mps 738 mmHg 67%
    09:00 +22°C° 0 mm 1 mps 738 mmHg 62%
    10:00 +24°C° 0 mm 2 mps 738 mmHg 57%
    11:00 +25°C° 0 mm 2 mps 737 mmHg 55%
    12:00 +26°C° 0 mm 3 mps 737 mmHg 52%
    13:00 +27°C° 0 mm 3 mps 737 mmHg 50%
    14:00 +27°C° 0 mm 3 mps 737 mmHg 51%
    15:00 +27°C° 0 mm 3 mps 737 mmHg 52%
    16:00 +27°C° 0 mm 3 mps 736 mmHg 53%
    17:00 +26°C° 0 mm 3 mps 736 mmHg 59%
    18:00 +24°C° 0 mm 2 mps 737 mmHg 65%
    19:00 +23°C° 0 mm 2 mps 737 mmHg 71%
    20:00 +21°C° 0 mm 1 mps 737 mmHg 73%
    21:00 +20°C° 0 mm 1 mps 737 mmHg 75%
    22:00 +18°C° 0 mm 1 mps 738 mmHg 76%
    23:00 +16°C° 0 mm 1 mps 738 mmHg 78%

    29 June, Saturday

    Time Temperature Precipitation Wind Pressure Humidity
    00:00 +16°C° 0 mm 1 mps 737 mmHg 80%
    01:00 +15°C° 0 mm 1 mps 737 mmHg 81%
    02:00 +14°C° 0 mm 1 mps 737 mmHg 83%
    03:00 +14°C° 0 mm 1 mps 737 mmHg 85%
    04:00 +13°C° 0 mm 1 mps 737 mmHg 87%
    05:00 +15°C° 0 mm 1 mps 737 mmHg 83%
    06:00 +16°C° 0 mm 1 mps 737 mmHg 78%
    07:00 +19°C° 0 mm 1 mps 737 mmHg 74%
    08:00 +20°C° 0 mm 1 mps 737 mmHg 69%
    09:00 +21°C° 0 mm 2 mps 737 mmHg 65%
    10:00 +24°C° 0 mm 2 mps 737 mmHg 60%
    11:00 +24°C° 0 mm 2 mps 737 mmHg 57%
    12:00 +25°C° 0 mm 2 mps 736 mmHg 55%
    13:00 +26°C° 0 mm 2 mps 736 mmHg 52%
    14:00 +26°C° 0 mm 2 mps 736 mmHg 52%
    15:00 +27°C° 0 mm 2 mps 736 mmHg 53%
    16:00 +27°C° 0 mm 2 mps 736 mmHg 53%
    17:00 +25°C° 0 mm 2 mps 736 mmHg 60%
    18:00 +24°C° 0 mm 3 mps 736 mmHg 68%
    19:00 +21°C° 0 mm 3 mps 736 mmHg 75%
    20:00 +20°C° 0 mm 2 mps 736 mmHg 77%
    21:00 +18°C° 0 mm 2 mps 737 mmHg 78%
    22:00 +17°C° 0 mm 2 mps 737 mmHg 80%
    23:00 +16°C° 0 mm 2 mps 737 mmHg 81%

    30 June, Sunday

    Time Temperature Precipitation Wind Pressure Humidity
    00:00 +16°C° 0 mm 2 mps 737 mmHg 81%
    01:00 +15°C° 0 mm 2 mps 737 mmHg 81%
    02:00 +15°C° 0 mm 2 mps 736 mmHg 82%
    03:00 +14°C° 0 mm 2 mps 736 mmHg 83%
    04:00 +14°C° 0 mm 2 mps 736 mmHg 85%
    05:00 +15°C° 0 mm 2 mps 736 mmHg 81%
    06:00 +17°C° 0 mm 2 mps 736 mmHg 78%
    07:00 +18°C° 0 mm 2 mps 736 mmHg 74%
    08:00 +20°C° 0 mm 2 mps 736 mmHg 70%
    09:00 +22°C° 0 mm 3 mps 736 mmHg 67%
    10:00 +25°C° 0 mm 3 mps 736 mmHg 63%
    11:00 +26°C° 0 mm 3 mps 735 mmHg 60%
    12:00 +27°C° 0 mm 3 mps 735 mmHg 57%
    13:00 +29°C° 0 mm 3 mps 735 mmHg 54%
    14:00 +29°C° 0 mm 3 mps 735 mmHg 54%
    15:00 +29°C° 0 mm 3 mps 734 mmHg 55%
    16:00 +30°C° 0 mm 2 mps 734 mmHg 56%
    17:00 +28°C° 0 mm 2 mps 734 mmHg 63%
    18:00 +26°C° 0 mm 2 mps 734 mmHg 69%
    19:00 +25°C° 0 mm 1 mps 734 mmHg 76%
    20:00 +24°C° 0 mm 1 mps 734 mmHg 79%
    21:00 +22°C° 0 mm 1 mps 734 mmHg 82%
    22:00 +21°C° 0 mm 1 mps 734 mmHg 85%
    23:00 +20°C° 0 mm 1 mps 734 mmHg 85%
    Show more